Flag for Switzerland Weather past 2 weeks in Horw, Lucerne, Switzerland

Now
38 °F

Chilly.


Feels Like: 38 °F
Forecast: 40 / 49 °F
Wind: 1 mph from Southwest

Location: Giswil

Current Time: Dec 19, 2014 at 9:19:49 AM

Latest Report: Dec 19, 2014 at 8:00 AM


Visibility: N/A

Pressure: 30.30 "Hg

Humidity: 100%

Dew point: 38 °F

Location of HorwLocation

Historic Weather in Horw — Graph

°F

Horw temperature yesterday

Maximum temperature yesterday: 48 °F (at 1:00 PM)
Minimum temperature yesterday: 39 °F (at 4:00 AM)
Average temperature yesterday: 43 °F

Past Weeks' High & Low Weather Summary

 TemperatureHumidityPressure
High50 °F (Dec 15, 2:00 PM)100% (Dec 4, 7:00 PM)30.49 "Hg (Dec 4, 7:00 PM)
Low26 °F (Dec 12, 8:00 AM)48% (Dec 11, 7:00 PM)29.90 "Hg (Dec 12, 9:00 PM)
Average39 °F95%30.14 "Hg
* Reported Dec 4 8:00 AM — Dec 19 8:00 AM, Horw, Weather by CustomWeather, © 2014

Note: Actual official high and low records may vary slightly from our data, if they occured in-between our weather recording intervals... More about our weather records

Advertising

Horw weather history for previous 24 hours

 ConditionsComfort  
Time TempWeatherWind HumidityBarometerVisibility
8:00 AM
Dec 19
38 °FChilly.1 mph100%30.30 "HgN/A
7:00 AM39 °FChilly.3 mph100%30.30 "HgN/A
6:00 AM39 °FChilly.1 mph100%30.29 "HgN/A
5:00 AM41 °FQuite cool.2 mph100%30.29 "HgN/A
3:00 AM42 °FQuite cool.2 mph100%30.32 "HgN/A
2:00 AM44 °FQuite cool.No wind100%30.30 "HgN/A
1:00 AM44 °FQuite cool.1 mph100%30.29 "HgN/A
12:00 AM44 °FQuite cool.1 mph100%30.29 "HgN/A
11:00 PM
Dec 18
43 °FQuite cool.1 mph100%30.31 "HgN/A
9:00 PM44 °FQuite cool.No wind100%30.28 "HgN/A
8:00 PM45 °FQuite cool.1 mph100%30.27 "HgN/A
7:00 PM45 °FCool.1 mph100%30.26 "HgN/A
6:00 PM45 °FCool.2 mph100%30.24 "HgN/A
5:00 PM46 °FCool.1 mph100%30.24 "HgN/A
4:00 PM46 °FCool.2 mph100%30.21 "HgN/A
3:00 PM45 °FCool.2 mph100%30.19 "HgN/A
2:00 PM45 °FCool.6 mph100%30.18 "HgN/A
1:00 PM48 °FCool.3 mph99%30.16 "HgN/A
12:00 PM44 °FQuite cool.6 mph100%30.19 "HgN/A
11:00 AM42 °FQuite cool.2 mph100%30.20 "HgN/A
10:00 AM41 °FQuite cool.1 mph100%30.17 "HgN/A
9:00 AM40 °FChilly.1 mph100%30.17 "HgN/A
Weather by CustomWeather, © 2014

See weather overviewHow to use our weather pages